Location: Newark
(58.9986°N, 38.5006°E)
Time: 02:28:17
(UTC+00:00)

N. Korean satellite - Pass Details

Date: 10 December 2019
Orbit: 454 x 507 km, 97.2° (Epoch: 26 January)

Event Time Altitude Azimuth Distance (km) Brightness Sun altitude
Rises 03:22:02 0° 17° (NNE) 2,578 10.3 -19.0°
Reaches altitude 10° 03:24:09 10° 21° (NNE) 1,683 9.4 -18.8°
Maximum altitude 03:27:44 59° 102° (ESE) 562 7.1 -18.3°
Drops below altitude 10° 03:31:13 10° 182° (S) 1,638 9.4 -17.9°
Sets 03:33:16 0° 187° (S) 2,502 10.3 -17.6°
